#timestamp,LO_Frequency,Hit,StdDev 
1624406415.3,286047000.2,N
1624406435.1,286047000.2,N
1624406455.9,286047002.5,N
1624406475.7,286047000.4,N
1624406495.5,286046999.8,N
1624406515.4,286047002.4,N
1624406535.2,286047002.7,N
1624406555.1,286046999.9,N
1624406556.0,286046999.9,N
1624406575.8,286046998.5,N
1624406595.6,286047001.1,N
1624406615.5,286046998.1,N
1624406635.3,286046999.0,N
1624406655.2,286046996.5,N
1624406675.9,286046999.6,N
1624406695.7,286046999.6,N
1624406715.6,286046997.1,N
1624406735.4,286046996.8,N
1624406755.2,286046996.8,N
1624406775.1,286046997.0,N
1624406776.0,286046997.0,N
1624406795.8,286046997.9,N
1624406815.7,286046997.3,N
1624406835.5,286046997.6,N
1624406855.3,286046997.6,N
1624406875.2,286046995.5,N
1624406895.0,286046995.6,N
1624406895.9,286046995.6,N
1624406915.8,286046997.3,N
1624406935.6,286046999.2,N
1624406955.4,286046999.4,N
1624406975.3,286047000.8,N
1624406995.1,286047001.1,N
1624407015.8,286047002.8,N
1624407035.7,286047000.1,N
1624407055.5,286046999.9,N
1624407075.4,286047002.8,N
1624407095.2,286046999.7,N
1624407115.0,286046999.7,N
1624407115.9,286046999.7,N
1624407135.8,286047002.4,N
1624407155.6,286047000.3,N
1624407175.4,286046999.8,N
1624407195.3,286046999.7,N
1624407215.1,286046999.9,N
1624407235.9,286047000.4,N
1624407255.7,286046999.9,N
1624407275.5,286047000.0,N
1624407295.4,286047000.4,N
1624407315.2,286046999.7,N
1624407335.0,286046999.7,N
1624407336.0,286046999.7,N
1624407355.8,286047000.6,N
1624407375.6,286047000.8,N
1624407395.5,286046999.9,N
1624407415.3,286046998.2,N
1624407435.1,286047001.2,N
1624407455.9,286047001.2,N
1624407475.7,286047000.7,N
1624407495.5,286047000.3,N
1624407515.4,286046999.9,N
1624407535.2,286046999.9,N
1624407555.1,286046999.7,N
1624407556.0,286046999.7,N
1624407575.8,286047000.6,N
1624407595.6,286046999.1,N
1624407615.5,286046999.1,N
1624407635.3,286046998.8,N
1624407655.2,286047000.7,N
1624407675.9,286047000.7,N
1624407695.7,286047002.2,N
1624407715.6,286047000.1,N
1624407735.4,286047002.7,Y
1624407755.2,286047000.3,P
1624407775.1,286046999.9,N
1624407776.0,286046999.9,N
1624407795.8,286047000.2,N
1624407815.7,286046999.9,N
1624407835.5,286047002.1,Y
1624407855.3,286047002.3,P
1624407875.2,286046999.8,N
1624407895.0,286047002.2,N
1624407895.9,286047002.2,N
1624407915.7,286047002.5,N
1624407935.6,286047002.6,N
1624407955.4,286047000.0,N
1624407975.3,286046999.9,N
1624407995.1,286047001.0,N
1624407996.0,286047001.0,N
1624408015.8,286047000.6,N
1624408035.7,286047001.1,N
1624408055.5,286047000.8,N
1624408075.3,286047000.9,N
1624408095.2,286046999.7,N
1624408115.0,286047002.3,N
1624408115.9,286047002.3,N
1624408135.8,286047001.0,N
1624408155.6,286047000.1,N
1624408175.4,286046999.7,N
1624408195.3,286047000.2,N
1624408215.1,286047000.4,N
1624408235.8,286047000.1,N
1624408255.7,286047000.8,N
1624408275.5,286046998.1,N
1624408295.4,286047000.9,N
1624408315.2,286047000.4,N
1624408335.0,286047002.7,N
1624408335.9,286047002.7,N
1624408355.8,286046999.8,N
1624408375.6,286047000.1,N
1624408395.4,286047001.9,N
1624408415.3,286047002.3,N
1624408435.1,286047002.7,N
1624408455.9,286047002.8,N
1624408475.7,286046999.7,N
1624408495.5,286046999.7,N
1624408515.4,286047000.2,N
1624408535.2,286047000.8,N
1624408555.0,286047002.6,N
1624408555.9,286047002.6,N
1624408575.8,286047001.5,N
1624408595.6,286047002.4,N
1624408615.5,286047002.0,N
1624408635.3,286047000.0,N
1624408655.1,286047002.3,N
1624408675.9,286047002.3,N
1624408695.7,286047001.4,N
1624408715.5,286047002.1,N
1624408735.4,286047002.4,N
1624408755.2,286046999.9,N
1624408775.1,286047001.5,N
1624408776.0,286047001.5,N
1624408795.8,286047004.4,Y
1624408815.6,286047002.8,P
1624408835.5,286047000.0,N
1624408855.3,286047001.0,N
1624408875.2,286047000.7,N
1624408895.9,286047000.6,N
1624408915.7,286046999.9,N
1624408935.6,286047001.9,N
1624408955.4,286047002.7,N
1624408975.2,286047002.1,N
1624408995.1,286047002.2,N
1624408996.0,286047002.2,N
1624409015.8,286047002.3,N
1624409035.7,286047002.6,N
1624409055.5,286047000.1,N
1624409075.3,286047000.4,N
1624409095.2,286047011.9,Y
1624409115.0,286047001.2,P
1624409115.9,286047001.2,P
1624409135.8,286047000.8,P
1624409155.6,286047000.8,Y
1624409175.4,286046999.6,P
1624409195.3,286046997.5,P
1624409215.1,286046996.2,N
1624409235.8,286046996.4,N
1624409255.7,286046996.1,N
1624409275.5,286046996.3,N
1624409295.4,286046995.9,N
1624409315.2,286046997.6,N
1624409335.0,286046994.9,N
1624409335.9,286046994.9,N
1624409355.8,286046995.8,N
1624409375.6,286046995.3,N
1624409395.4,286046998.0,N
1624409415.3,286046998.0,N
1624409435.1,286046997.1,N
1624409455.9,286046997.2,N
1624409475.7,286046997.7,N
1624409495.5,286046997.6,N
1624409515.4,286046997.6,N
1624409535.2,286046997.5,N
1624409555.0,286046997.7,N
1624409555.9,286046997.7,N
1624409575.8,286046996.6,N
1624409595.6,286046996.8,N
1624409615.5,286046997.5,N
1624409635.3,286046997.2,N
1624409655.1,286046997.2,N
1624409675.9,286046999.5,N
1624409695.7,286046996.6,N
1624409715.5,286046996.8,N
1624409735.4,286046997.2,N
1624409755.2,286046997.7,N
1624409775.1,286046995.0,Y
1624409776.0,286046995.0,P
1624409795.8,286046999.5,N
1624409815.6,286046997.1,N
1624409835.5,286046997.6,N
1624409855.3,286046997.2,N
1624409875.2,286046997.5,N
1624409895.9,286046997.9,N
1624409915.7,286046994.9,Y
1624409935.6,286046999.3,P
1624409955.4,286046999.3,N
1624409975.2,286046999.0,N
1624409995.1,286046998.9,N
1624409996.0,286046998.9,N
